Location: Unspecified
(0.0000°N, 0.0000°E)
Time: 15:09:43
(UTC+00:00)

Vanguard 2 Rocket - Pass Details

Date: 09 October 2022
Orbit: 553 x 3312 km, 32.9° (Epoch: 20 September)

Event Time Altitude Azimuth Distance (km) Brightness Sun altitude
Rises 20:44:21 0° 274° (W) 7,263 12.2 -43.9°
Reaches altitude 10° 20:51:07 10° 287° (WNW) 6,264 11.6 -45.6°
Maximum altitude 21:05:12 23° 332° (NNW) 4,782 10.5 -49.1°
Enters shadow 21:10:51 20° 357° (N) 4,685 10.3 -50.5°
